Location: Wald
(31.7579°N, 86.6655°W)
Time: 20:53:47
(UTC+00:00)

Cosmos 1656 - Pass Details

Date: 14 July 2020
Orbit: 799 x 848 km, 71.1° (Epoch: 13 August)

Event Time Altitude Azimuth Distance (km) Brightness Sun altitude
Rises 07:34:49 0° 343° (NNW) 3,310 7.4 -31.3°
Reaches altitude 10° 07:37:14 10° 345° (NNW) 2,379 6.6 -31.1°
Enters shadow 07:41:58 62° 24° (NNE) 902 3.9 -30.6°
